Location: *
(0.1100°N, 5.5000°E)
Time: 08:07:29
(UTC+00:00)

COSMOS 2251 DEB - Visible Passes

Search period start: 06 December 2023 00:00
Search period end: 16 December 2023 00:00
Orbit: 704 x 771 km, 73.9° (Epoch: 03 December)

Date Brightness Start Highest point End Pass type
(mag) Time Alt. Az. Time Alt. Az. Time Alt. Az.
06 Dec ? 18:32:20 10° NW 18:36:52 38° WSW 18:41:26 10° S visible
08 Dec ? 04:36:11 10° ESE 04:37:14 11° ESE 04:38:16 10° E visible
08 Dec ? 18:42:49 10° WNW 18:45:41 15° WSW 18:48:32 10° SW visible
09 Dec ? 17:54:52 10° NNW 17:59:28 42° WSW 18:04:08 10° S visible
10 Dec ? 04:41:40 10° SSE 04:46:02 26° ESE 04:50:21 10° NE visible
11 Dec ? 18:05:01 10° WNW 18:08:11 17° WSW 18:11:22 10° SW visible
12 Dec ? 04:49:31 10° S 04:54:44 64° ESE 04:59:53 10° NNE visible
13 Dec ? 04:04:18 10° SSE 04:08:29 24° ESE 04:12:38 10° NE visible
14 Dec ? 04:58:16 10° SSW 05:03:21 52° WNW 05:08:25 10° N visible
15 Dec ? 04:11:56 10° S 04:17:06 58° ESE 04:22:12 10° NNE visible
